Time,TemperatureF,DewpointF,PressureIn,WindDirection,WindDirectionDegrees,WindSpeedMPH,WindSpeedGustMPH,Humidity,HourlyPrecipIn,Conditions,Clouds,dailyrainin,SoftwareType,DateUTC
2013-02-05 00:00:00,38.3,29.4,29.85,SE,136,3.0,6.0,70,0.00,,CLR,0.00,VWS V14.01,2013-02-05 05:00:00,
2013-02-05 00:05:00,36.9,30.7,29.87,South,169,2.0,5.0,78,0.00,,OVC100,0.00,VWS V14.01,2013-02-05 05:05:00,
2013-02-05 00:10:00,36.9,30.4,29.87,South,169,0.0,2.0,77,0.00,,OVC100,0.00,VWS V14.01,2013-02-05 05:10:00,
2013-02-05 00:15:00,37.0,30.5,29.86,SE,143,5.0,5.0,77,0.00,,OVC100,0.00,VWS V14.01,2013-02-05 05:15:00,
2013-02-05 00:20:00,37.2,30.4,29.86,South,185,0.0,5.0,76,0.00,,OVC100,0.00,VWS V14.01,2013-02-05 05:20:00,
2013-02-05 00:25:00,37.3,30.1,29.86,South,172,2.0,5.0,75,0.00,,OVC100,0.00,VWS V14.01,2013-02-05 05:25:00,
2013-02-05 00:30:00,38.9,28.9,29.84,South,172,0.0,5.0,67,0.00,,CLR,0.00,VWS V14.01,2013-02-05 05:30:00,
2013-02-05 00:35:00,37.8,30.3,29.86,South,174,1.0,6.0,74,0.00,,OVC100,0.00,VWS V14.01,2013-02-05 05:35:00,
2013-02-05 00:40:00,37.8,29.9,29.86,South,171,2.0,7.0,73,0.00,,OVC100,0.00,VWS V14.01,2013-02-05 05:40:00,
2013-02-05 00:45:00,37.9,29.7,29.85,South,181,0.0,7.0,72,0.00,,OVC100,0.00,VWS V14.01,2013-02-05 05:45:00,
2013-02-05 00:50:00,38.0,29.5,29.85,SSW,196,0.0,6.0,71,0.00,,OVC100,0.00,VWS V14.01,2013-02-05 05:50:00,
2013-02-05 00:55:00,39.1,28.7,29.84,SW,236,0.0,2.0,66,0.00,,CLR,0.00,VWS V14.01,2013-02-05 05:55:00,
2013-02-05 01:00:00,38.3,29.4,29.85,SE,136,3.0,6.0,70,0.00,,OVC080,0.00,VWS V14.01,2013-02-05 06:00:00,
2013-02-05 01:05:00,39.1,28.7,29.84,SSE,155,1.0,6.0,66,0.00,,CLR,0.00,VWS V14.01,2013-02-05 06:05:00,
2013-02-05 01:10:00,38.5,28.9,29.85,South,169,0.0,3.0,68,0.00,,OVC080,0.00,VWS V14.01,2013-02-05 06:10:00,
2013-02-05 01:15:00,39.1,29.1,29.84,SSW,199,6.0,6.0,67,0.00,,CLR,0.00,VWS V14.01,2013-02-05 06:15:00,
2013-02-05 01:20:00,38.6,28.6,29.84,SSE,160,0.0,4.0,67,0.00,,OVC080,0.00,VWS V14.01,2013-02-05 06:20:00,
2013-02-05 01:25:00,38.8,28.8,29.84,SW,229,0.0,2.0,67,0.00,,CLR,0.00,VWS V14.01,2013-02-05 06:25:00,
2013-02-05 01:30:00,38.9,28.9,29.84,South,172,0.0,5.0,67,0.00,,OVC080,0.00,VWS V14.01,2013-02-05 06:30:00,
2013-02-05 01:35:00,38.9,28.5,29.84,SSW,203,0.0,6.0,66,0.00,,OVC080,0.00,VWS V14.01,2013-02-05 06:35:00,
2013-02-05 01:40:00,39.1,28.7,29.84,SE,124,6.0,7.0,66,0.00,,OVC080,0.00,VWS V14.01,2013-02-05 06:40:00,
2013-02-05 01:45:00,39.1,28.7,29.84,South,186,1.0,6.0,66,0.00,,OVC080,0.00,VWS V14.01,2013-02-05 06:45:00,
2013-02-05 01:50:00,39.1,28.7,29.84,SSE,155,0.0,7.0,66,0.00,,OVC080,0.00,VWS V14.01,2013-02-05 06:50:00,
2013-02-05 01:55:00,39.1,28.7,29.84,SW,236,0.0,2.0,66,0.00,,OVC080,0.00,VWS V14.01,2013-02-05 06:55:00,
2013-02-05 02:00:00,38.0,28.8,29.84,South,188,0.0,0.0,69,0.00,,CLR,0.00,VWS V14.01,2013-02-05 07:00:00,
2013-02-05 02:05:00,39.1,28.7,29.84,SSE,155,1.0,6.0,66,0.00,,OVC075,0.00,VWS V14.01,2013-02-05 07:05:00,
2013-02-05 02:10:00,38.9,28.5,29.84,South,172,3.0,3.0,66,0.00,,OVC075,0.00,VWS V14.01,2013-02-05 07:10:00,
2013-02-05 02:15:00,39.1,29.1,29.84,SSW,199,6.0,6.0,67,0.00,,OVC075,0.00,VWS V14.01,2013-02-05 07:15:00,
2013-02-05 02:20:00,37.8,28.9,29.83,South,188,0.0,0.0,70,0.00,,CLR,0.00,VWS V14.01,2013-02-05 07:20:00,
2013-02-05 02:25:00,38.8,28.8,29.84,SW,229,0.0,2.0,67,0.00,,OVC075,0.00,VWS V14.01,2013-02-05 07:25:00,
2013-02-05 02:30:00,37.6,28.7,29.83,South,188,0.0,0.0,70,0.00,,CLR,0.00,VWS V14.01,2013-02-05 07:30:00,
2013-02-05 02:35:00,38.6,28.6,29.84,South,181,0.0,3.0,67,0.00,,OVC075,0.00,VWS V14.01,2013-02-05 07:35:00,
2013-02-05 02:40:00,38.6,29.0,29.84,SW,217,0.0,0.0,68,0.00,,OVC075,0.00,VWS V14.01,2013-02-05 07:40:00,
2013-02-05 02:45:00,37.0,28.5,29.83,South,188,0.0,0.0,71,0.00,,CLR,0.00,VWS V14.01,2013-02-05 07:45:00,
2013-02-05 02:50:00,38.3,28.7,29.83,South,188,0.0,1.0,68,0.00,,OVC075,0.00,VWS V14.01,2013-02-05 07:50:00,
2013-02-05 02:55:00,38.2,28.9,29.83,South,188,0.0,0.0,69,0.00,,OVC075,0.00,VWS V14.01,2013-02-05 07:55:00,
2013-02-05 03:00:00,36.2,28.4,29.83,South,188,0.0,0.0,73,0.00,,CLR,0.00,VWS V14.01,2013-02-05 08:00:00,
2013-02-05 03:05:00,37.9,28.6,29.84,South,188,0.0,0.0,69,0.00,,OVC070,0.00,VWS V14.01,2013-02-05 08:05:00,
2013-02-05 03:10:00,37.9,28.6,29.84,South,188,0.0,0.0,69,0.00,,OVC070,0.00,VWS V14.01,2013-02-05 08:10:00,
2013-02-05 03:15:00,36.3,28.1,29.82,South,188,0.0,0.0,72,0.00,,CLR,0.00,VWS V14.01,2013-02-05 08:15:00,
2013-02-05 03:20:00,37.8,28.9,29.83,South,188,0.0,0.0,70,0.00,,OVC070,0.00,VWS V14.01,2013-02-05 08:20:00,
2013-02-05 03:25:00,36.6,28.4,29.82,South,188,0.0,0.0,72,0.00,,CLR,0.00,VWS V14.01,2013-02-05 08:25:00,
2013-02-05 03:30:00,37.6,28.7,29.83,South,188,0.0,0.0,70,0.00,,OVC070,0.00,VWS V14.01,2013-02-05 08:30:00,
2013-02-05 03:35:00,37.5,28.6,29.83,South,188,0.0,0.0,70,0.00,,OVC070,0.00,VWS V14.01,2013-02-05 08:35:00,
2013-02-05 03:40:00,37.2,28.7,29.83,South,188,0.0,0.0,71,0.00,,OVC070,0.00,VWS V14.01,2013-02-05 08:40:00,
2013-02-05 03:45:00,37.0,28.5,29.83,South,188,0.0,0.0,71,0.00,,OVC070,0.00,VWS V14.01,2013-02-05 08:45:00,
2013-02-05 03:50:00,37.2,28.3,29.82,South,188,0.0,0.0,70,0.00,,CLR,0.00,VWS V14.01,2013-02-05 08:50:00,
2013-02-05 03:55:00,36.3,28.1,29.83,South,188,0.0,0.0,72,0.00,,OVC070,0.00,VWS V14.01,2013-02-05 08:55:00,
2013-02-05 04:00:00,36.2,28.4,29.83,South,188,0.0,0.0,73,0.00,,BKN080,0.00,VWS V14.01,2013-02-05 09:00:00,
2013-02-05 04:05:00,35.9,28.1,29.83,South,188,0.0,0.0,73,0.00,,BKN080,0.00,VWS V14.01,2013-02-05 09:05:00,
2013-02-05 04:10:00,36.2,28.4,29.83,South,188,0.0,0.0,73,0.00,,BKN080,0.00,VWS V14.01,2013-02-05 09:10:00,
2013-02-05 04:15:00,36.3,28.1,29.82,South,188,0.0,0.0,72,0.00,,BKN080,0.00,VWS V14.01,2013-02-05 09:15:00,
2013-02-05 04:20:00,37.0,28.5,29.81,South,188,0.0,0.0,71,0.00,,CLR,0.00,VWS V14.01,2013-02-05 09:20:00,
2013-02-05 04:25:00,36.6,28.4,29.82,South,188,0.0,0.0,72,0.00,,BKN080,0.00,VWS V14.01,2013-02-05 09:25:00,
2013-02-05 04:30:00,36.8,28.3,29.82,South,188,0.0,0.0,71,0.00,,BKN080,0.00,VWS V14.01,2013-02-05 09:30:00,
2013-02-05 04:35:00,36.9,28.4,29.82,South,188,0.0,0.0,71,0.00,,BKN080,0.00,VWS V14.01,2013-02-05 09:35:00,
2013-02-05 04:40:00,37.0,28.5,29.82,South,188,0.0,0.0,71,0.00,,BKN080,0.00,VWS V14.01,2013-02-05 09:40:00,
2013-02-05 04:45:00,37.2,28.3,29.82,South,188,0.0,0.0,70,0.00,,BKN080,0.00,VWS V14.01,2013-02-05 09:45:00,
2013-02-05 04:50:00,36.0,28.2,29.82,South,188,0.0,0.0,73,0.00,,CLR,0.00,VWS V14.01,2013-02-05 09:50:00,
2013-02-05 04:55:00,37.0,28.1,29.82,South,188,0.0,0.0,70,0.00,,BKN080,0.00,VWS V14.01,2013-02-05 09:55:00,
2013-02-05 05:00:00,35.5,28.4,29.83,South,189,0.0,0.0,75,0.00,,CLR,0.00,VWS V14.01,2013-02-05 10:00:00,
2013-02-05 05:05:00,37.0,28.1,29.82,South,188,0.0,0.0,70,0.00,,BKN120,0.00,VWS V14.01,2013-02-05 10:05:00,
2013-02-05 05:10:00,37.0,28.1,29.82,South,188,0.0,0.0,70,0.00,,BKN120,0.00,VWS V14.01,2013-02-05 10:10:00,
2013-02-05 05:15:00,34.7,28.2,29.83,South,189,0.0,0.0,77,0.00,,CLR,0.00,VWS V14.01,2013-02-05 10:15:00,
2013-02-05 05:20:00,37.0,28.5,29.81,South,188,0.0,0.0,71,0.00,,BKN120,0.00,VWS V14.01,2013-02-05 10:20:00,
2013-02-05 05:25:00,36.9,28.4,29.81,South,188,0.0,0.0,71,0.00,,BKN120,0.00,VWS V14.01,2013-02-05 10:25:00,
2013-02-05 05:30:00,34.1,28.3,29.83,South,189,0.0,0.0,79,0.00,,CLR,0.00,VWS V14.01,2013-02-05 10:30:00,
2013-02-05 05:35:00,36.8,28.3,29.82,South,188,0.0,0.0,71,0.00,,BKN120,0.00,VWS V14.01,2013-02-05 10:35:00,
2013-02-05 05:40:00,36.5,28.4,29.82,South,188,0.0,0.0,72,0.00,,BKN120,0.00,VWS V14.01,2013-02-05 10:40:00,
2013-02-05 05:45:00,36.3,28.5,29.82,South,188,0.0,0.0,73,0.00,,BKN120,0.00,VWS V14.01,2013-02-05 10:45:00,
2013-02-05 05:50:00,34.1,28.9,29.83,South,189,0.0,0.0,81,0.00,,CLR,0.00,VWS V14.01,2013-02-05 10:50:00,
2013-02-05 05:55:00,35.9,28.4,29.82,South,188,0.0,0.0,74,0.00,,BKN120,0.00,VWS V14.01,2013-02-05 10:55:00,
2013-02-05 06:00:00,35.5,28.4,29.83,South,189,0.0,0.0,75,0.00,,SCT120,0.00,VWS V14.01,2013-02-05 11:00:00,
2013-02-05 06:05:00,35.2,28.4,29.83,South,189,0.0,0.0,76,0.00,,SCT120,0.00,VWS V14.01,2013-02-05 11:05:00,
2013-02-05 06:10:00,34.9,28.4,29.83,South,189,0.0,0.0,77,0.00,,SCT120,0.00,VWS V14.01,2013-02-05 11:10:00,
2013-02-05 06:15:00,34.9,29.4,29.84,South,189,0.0,0.0,80,0.00,,CLR,0.00,VWS V14.01,2013-02-05 11:15:00,
2013-02-05 06:20:00,34.6,28.1,29.83,South,189,0.0,0.0,77,0.00,,SCT120,0.00,VWS V14.01,2013-02-05 11:20:00,
2013-02-05 06:25:00,34.3,28.2,29.83,South,189,0.0,0.0,78,0.00,,SCT120,0.00,VWS V14.01,2013-02-05 11:25:00,
2013-02-05 06:30:00,34.7,29.2,29.84,South,189,0.0,0.0,80,0.00,,CLR,0.00,VWS V14.01,2013-02-05 11:30:00,
2013-02-05 06:35:00,34.0,28.2,29.83,South,189,0.0,0.0,79,0.00,,SCT120,0.00,VWS V14.01,2013-02-05 11:35:00,
2013-02-05 06:40:00,33.8,28.3,29.83,South,189,0.0,0.0,80,0.00,,SCT120,0.00,VWS V14.01,2013-02-05 11:40:00,
2013-02-05 06:45:00,34.6,29.4,29.85,South,189,0.0,0.0,81,0.00,,CLR,0.00,VWS V14.01,2013-02-05 11:45:00,
2013-02-05 06:50:00,34.1,28.9,29.83,South,189,0.0,0.0,81,0.00,,SCT120,0.00,VWS V14.01,2013-02-05 11:50:00,
2013-02-05 06:55:00,34.3,29.1,29.83,South,189,0.0,0.0,81,0.00,,SCT120,0.00,VWS V14.01,2013-02-05 11:55:00,
2013-02-05 07:00:00,34.7,29.8,29.86,South,189,0.0,0.0,82,0.00,,CLR,0.00,VWS V14.01,2013-02-05 12:00:00,
2013-02-05 07:05:00,34.4,29.2,29.84,South,189,0.0,0.0,81,0.00,,FEW100,0.00,VWS V14.01,2013-02-05 12:05:00,
2013-02-05 07:10:00,34.6,29.4,29.84,South,189,0.0,0.0,81,0.00,,FEW100,0.00,VWS V14.01,2013-02-05 12:10:00,
2013-02-05 07:15:00,34.9,29.4,29.84,South,189,0.0,0.0,80,0.00,,FEW100,0.00,VWS V14.01,2013-02-05 12:15:00,
2013-02-05 07:20:00,34.9,29.1,29.84,South,189,0.0,0.0,79,0.00,,FEW100,0.00,VWS V14.01,2013-02-05 12:20:00,
2013-02-05 07:25:00,35.5,30.9,29.86,South,189,0.0,0.0,83,0.00,,CLR,0.00,VWS V14.01,2013-02-05 12:25:00,
2013-02-05 07:30:00,34.7,29.2,29.84,South,189,0.0,0.0,80,0.00,,FEW100,0.00,VWS V14.01,2013-02-05 12:30:00,
2013-02-05 07:35:00,34.6,29.1,29.84,South,189,0.0,0.0,80,0.00,,FEW100,0.00,VWS V14.01,2013-02-05 12:35:00,
2013-02-05 07:40:00,34.6,29.4,29.84,South,189,0.0,0.0,81,0.00,,FEW100,0.00,VWS V14.01,2013-02-05 12:40:00,
2013-02-05 07:45:00,34.6,29.4,29.85,South,189,0.0,0.0,81,0.00,,FEW100,0.00,VWS V14.01,2013-02-05 12:45:00,
2013-02-05 07:50:00,34.6,29.4,29.85,South,189,0.0,0.0,81,0.00,,FEW100,0.00,VWS V14.01,2013-02-05 12:50:00,
2013-02-05 07:55:00,37.6,32.0,29.86,South,189,0.0,0.0,80,0.00,,CLR,0.00,VWS V14.01,2013-02-05 12:55:00,
2013-02-05 08:00:00,34.7,29.8,29.86,South,189,0.0,0.0,82,0.00,,SCT110,0.00,VWS V14.01,2013-02-05 13:00:00,
2013-02-05 08:05:00,34.7,29.8,29.86,South,189,0.0,0.0,82,0.00,,SCT110,0.00,VWS V14.01,2013-02-05 13:05:00,
2013-02-05 08:10:00,34.9,30.0,29.86,South,189,0.0,0.0,82,0.00,,SCT110,0.00,VWS V14.01,2013-02-05 13:10:00,
2013-02-05 08:15:00,35.0,30.1,29.86,South,189,0.0,0.0,82,0.00,,SCT110,0.00,VWS V14.01,2013-02-05 13:15:00,
2013-02-05 08:20:00,35.2,30.3,29.86,South,189,0.0,0.0,82,0.00,,SCT110,0.00,VWS V14.01,2013-02-05 13:20:00,
2013-02-05 08:25:00,35.5,30.9,29.86,South,189,0.0,0.0,83,0.00,,SCT110,0.00,VWS V14.01,2013-02-05 13:25:00,
2013-02-05 08:30:00,40.9,32.2,29.86,South,186,0.0,2.0,71,0.00,,CLR,0.00,VWS V14.01,2013-02-05 13:30:00,
2013-02-05 08:35:00,36.3,31.0,29.86,South,189,0.0,0.0,81,0.00,,SCT110,0.00,VWS V14.01,2013-02-05 13:35:00,
2013-02-05 08:40:00,36.5,31.2,29.86,South,189,0.0,0.0,81,0.00,,SCT110,0.00,VWS V14.01,2013-02-05 13:40:00,
2013-02-05 08:45:00,42.8,31.9,29.88,West,275,0.0,1.0,65,0.00,,CLR,0.00,VWS V14.01,2013-02-05 13:45:00,
2013-02-05 08:50:00,37.2,31.6,29.86,South,189,0.0,0.0,80,0.00,,SCT110,0.00,VWS V14.01,2013-02-05 13:50:00,
2013-02-05 08:55:00,37.6,32.0,29.86,South,189,0.0,0.0,80,0.00,,SCT110,0.00,VWS V14.01,2013-02-05 13:55:00,
2013-02-05 09:00:00,37.9,32.0,29.85,South,189,0.0,0.0,79,0.00,,FEW110,0.00,VWS V14.01,2013-02-05 14:00:00,
2013-02-05 09:05:00,45.5,31.6,29.88,NNE,18,1.0,3.0,58,0.00,,CLR,0.00,VWS V14.01,2013-02-05 14:05:00,
2013-02-05 09:10:00,38.5,31.9,29.85,South,189,0.0,0.0,77,0.00,,FEW110,0.00,VWS V14.01,2013-02-05 14:10:00,
2013-02-05 09:15:00,38.8,31.9,29.86,South,189,0.0,0.0,76,0.00,,FEW110,0.00,VWS V14.01,2013-02-05 14:15:00,
2013-02-05 09:20:00,45.1,31.2,29.87,NNW,335,3.0,3.0,58,0.00,,CLR,0.00,VWS V14.01,2013-02-05 14:20:00,
2013-02-05 09:25:00,39.9,32.3,29.86,South,189,0.0,0.0,74,0.00,,FEW110,0.00,VWS V14.01,2013-02-05 14:25:00,
2013-02-05 09:30:00,40.9,32.2,29.86,South,186,0.0,2.0,71,0.00,,FEW110,0.00,VWS V14.01,2013-02-05 14:30:00,
2013-02-05 09:35:00,41.9,32.1,29.86,SSW,192,0.0,0.0,68,0.00,,FEW110,0.00,VWS V14.01,2013-02-05 14:35:00,
2013-02-05 09:40:00,43.9,30.1,29.87,North,0,0.0,3.0,58,0.00,,CLR,0.00,VWS V14.01,2013-02-05 14:40:00,
2013-02-05 09:45:00,42.8,31.9,29.88,West,275,0.0,1.0,65,0.00,,FEW110,0.00,VWS V14.01,2013-02-05 14:45:00,
2013-02-05 09:50:00,43.6,32.2,29.88,West,274,2.0,2.0,64,0.00,,FEW110,0.00,VWS V14.01,2013-02-05 14:50:00,
2013-02-05 09:55:00,44.2,32.8,29.88,WNW,301,0.0,2.0,64,0.00,,FEW110,0.00,VWS V14.01,2013-02-05 14:55:00,
2013-02-05 10:00:00,45.1,32.1,29.88,WNW,285,0.0,4.0,60,0.00,,SCT110,0.00,VWS V14.01,2013-02-05 15:00:00,
2013-02-05 10:05:00,43.5,29.7,29.87,NNE,20,0.0,2.0,58,0.00,,CLR,0.00,VWS V14.01,2013-02-05 15:05:00,
2013-02-05 10:10:00,45.8,31.9,29.88,ENE,62,0.0,3.0,58,0.00,,SCT110,0.00,VWS V14.01,2013-02-05 15:10:00,
2013-02-05 10:15:00,45.8,31.5,29.87,North,352,0.0,4.0,57,0.00,,SCT110,0.00,VWS V14.01,2013-02-05 15:15:00,
2013-02-05 10:20:00,43.9,29.7,29.86,NNE,17,0.0,2.0,57,0.00,,CLR,0.00,VWS V14.01,2013-02-05 15:20:00,
2013-02-05 10:25:00,44.2,31.2,29.87,NNW,335,0.0,5.0,60,0.00,,SCT110,0.00,VWS V14.01,2013-02-05 15:25:00,
2013-02-05 10:30:00,44.1,30.7,29.87,NNW,335,0.0,0.0,59,0.00,,SCT110,0.00,VWS V14.01,2013-02-05 15:30:00,
2013-02-05 10:35:00,45.2,30.5,29.85,NNW,344,0.0,1.0,56,0.00,,CLR,0.00,VWS V14.01,2013-02-05 15:35:00,
2013-02-05 10:40:00,43.9,30.1,29.87,North,0,0.0,3.0,58,0.00,,SCT110,0.00,VWS V14.01,2013-02-05 15:40:00,
2013-02-05 10:45:00,43.9,30.1,29.87,North,350,0.0,3.0,58,0.00,,SCT110,0.00,VWS V14.01,2013-02-05 15:45:00,
2013-02-05 10:50:00,43.8,30.0,29.87,North,350,0.0,2.0,58,0.00,,SCT110,0.00,VWS V14.01,2013-02-05 15:50:00,
2013-02-05 10:55:00,43.5,28.9,29.86,NNW,333,0.0,5.0,56,0.00,,CLR,0.00,VWS V14.01,2013-02-05 15:55:00,
2013-02-05 11:00:00,43.5,29.3,29.87,North,350,1.0,3.0,57,0.00,,OVC100,0.00,VWS V14.01,2013-02-05 16:00:00,
2013-02-05 11:05:00,43.5,29.7,29.87,NNE,20,0.0,2.0,58,0.00,,OVC100,0.00,VWS V14.01,2013-02-05 16:05:00,
2013-02-05 11:10:00,43.3,29.1,29.87,NNE,20,0.0,0.0,57,0.00,,OVC100,0.00,VWS V14.01,2013-02-05 16:10:00,
2013-02-05 11:15:00,43.6,29.8,29.86,NNE,17,0.0,2.0,58,0.00,,OVC100,0.00,VWS V14.01,2013-02-05 16:15:00,
2013-02-05 11:20:00,43.9,29.7,29.86,NNE,17,0.0,2.0,57,0.00,,OVC100,0.00,VWS V14.01,2013-02-05 16:20:00,
2013-02-05 11:25:00,44.3,30.0,29.86,NNE,17,0.0,0.0,57,0.00,,OVC100,0.00,VWS V14.01,2013-02-05 16:25:00,
2013-02-05 11:30:00,42.2,28.9,29.84,NNW,333,1.0,6.0,59,0.00,,CLR,0.00,VWS V14.01,2013-02-05 16:30:00,
2013-02-05 11:35:00,45.2,30.5,29.85,NNW,344,0.0,1.0,56,0.00,,OVC100,0.00,VWS V14.01,2013-02-05 16:35:00,
2013-02-05 11:40:00,41.6,29.2,29.84,NNW,329,0.0,4.0,61,0.00,,CLR,0.00,VWS V14.01,2013-02-05 16:40:00,
2013-02-05 11:45:00,44.5,28.9,29.86,NW,325,2.0,3.0,54,0.00,,OVC100,0.00,VWS V14.01,2013-02-05 16:45:00,
2013-02-05 11:50:00,41.8,29.8,29.83,NW,325,0.0,2.0,62,0.00,,CLR,0.00,VWS V14.01,2013-02-05 16:50:00,
2013-02-05 11:55:00,43.5,28.9,29.86,NNW,333,0.0,5.0,56,0.00,,OVC100,0.00,VWS V14.01,2013-02-05 16:55:00,
2013-02-05 12:00:00,43.3,29.5,29.85,NNW,333,0.0,0.0,58,0.00,,BKN100,0.00,VWS V14.01,2013-02-05 17:00:00,
2013-02-05 12:05:00,42.1,30.0,29.83,NW,325,0.0,3.0,62,0.00,,CLR,0.00,VWS V14.01,2013-02-05 17:05:00,
2013-02-05 12:10:00,42.6,28.5,29.85,NW,320,1.0,5.0,57,0.00,,BKN100,0.00,VWS V14.01,2013-02-05 17:10:00,
2013-02-05 12:15:00,42.5,28.8,29.85,NW,325,0.0,6.0,58,0.00,,BKN100,0.00,VWS V14.01,2013-02-05 17:15:00,
2013-02-05 12:20:00,42.5,28.4,29.85,NNW,333,2.0,4.0,57,0.00,,BKN100,0.00,VWS V14.01,2013-02-05 17:20:00,
2013-02-05 12:25:00,42.3,28.6,29.85,NNW,339,0.0,3.0,58,0.00,,BKN100,0.00,VWS V14.01,2013-02-05 17:25:00,
2013-02-05 12:30:00,42.2,28.9,29.84,NNW,333,1.0,6.0,59,0.00,,BKN100,0.00,VWS V14.01,2013-02-05 17:30:00,
2013-02-05 12:35:00,41.6,28.8,29.84,NNW,330,3.0,6.0,60,0.00,,BKN100,0.00,VWS V14.01,2013-02-05 17:35:00,
2013-02-05 12:40:00,43.5,30.1,29.81,NW,325,0.0,0.0,59,0.00,,CLR,0.00,VWS V14.01,2013-02-05 17:40:00,
2013-02-05 12:45:00,41.6,29.2,29.83,NW,325,0.0,3.0,61,0.00,,BKN100,0.00,VWS V14.01,2013-02-05 17:45:00,
2013-02-05 12:50:00,43.8,30.8,29.81,NW,325,2.0,2.0,60,0.00,,CLR,0.00,VWS V14.01,2013-02-05 17:50:00,
2013-02-05 12:55:00,41.9,29.9,29.83,NW,325,0.0,0.0,62,0.00,,BKN100,0.00,VWS V14.01,2013-02-05 17:55:00,
2013-02-05 13:00:00,42.1,30.0,29.83,NW,325,2.0,3.0,62,0.00,,OVC090,0.00,VWS V14.01,2013-02-05 18:00:00,
2013-02-05 13:05:00,42.8,30.3,29.81,NW,325,0.0,3.0,61,0.00,,CLR,0.00,VWS V14.01,2013-02-05 18:05:00,
2013-02-05 13:10:00,41.9,30.2,29.83,NW,325,0.0,3.0,63,0.00,,OVC090,0.00,VWS V14.01,2013-02-05 18:10:00,
2013-02-05 13:15:00,42.5,30.4,29.81,NW,325,0.0,3.0,62,0.00,,CLR,0.00,VWS V14.01,2013-02-05 18:15:00,
2013-02-05 13:20:00,42.3,29.8,29.82,NW,325,0.0,0.0,61,0.00,,OVC090,0.00,VWS V14.01,2013-02-05 18:20:00,
2013-02-05 13:25:00,42.8,29.9,29.82,NW,325,0.0,0.0,60,0.00,,OVC090,0.00,VWS V14.01,2013-02-05 18:25:00,
2013-02-05 13:30:00,41.6,31.5,29.81,NW,319,0.0,2.0,67,0.00,,CLR,0.00,VWS V14.01,2013-02-05 18:30:00,
2013-02-05 13:35:00,43.3,30.0,29.81,NW,325,0.0,0.0,59,0.00,,OVC090,0.00,VWS V14.01,2013-02-05 18:35:00,
2013-02-05 13:40:00,43.5,30.1,29.81,NW,325,0.0,0.0,59,0.00,,OVC090,0.00,VWS V14.01,2013-02-05 18:40:00,
2013-02-05 13:45:00,40.8,30.7,29.81,NW,325,3.0,6.0,67,0.00,,CLR,0.00,VWS V14.01,2013-02-05 18:45:00,
2013-02-05 13:50:00,43.8,30.8,29.81,NW,325,2.0,2.0,60,0.00,,OVC090,0.00,VWS V14.01,2013-02-05 18:50:00,
2013-02-05 13:55:00,43.3,30.4,29.81,NW,325,2.0,2.0,60,0.00,,OVC090,0.00,VWS V14.01,2013-02-05 18:55:00,
2013-02-05 14:00:00,40.5,31.1,29.80,NW,319,0.0,6.0,69,0.00,,CLR,0.00,VWS V14.01,2013-02-05 19:00:00,
2013-02-05 14:05:00,42.8,30.3,29.81,NW,325,0.0,3.0,61,0.00,,OVC070,0.00,VWS V14.01,2013-02-05 19:05:00,
2013-02-05 14:10:00,40.9,30.8,29.80,NW,318,0.0,0.0,67,0.00,,CLR,0.00,VWS V14.01,2013-02-05 19:10:00,
2013-02-05 14:15:00,42.5,30.4,29.81,NW,325,0.0,3.0,62,0.00,,OVC070,0.00,VWS V14.01,2013-02-05 19:15:00,
2013-02-05 14:20:00,42.3,30.6,29.81,NW,318,0.0,3.0,63,0.00,,OVC070,0.00,VWS V14.01,2013-02-05 19:20:00,
2013-02-05 14:25:00,41.3,31.2,29.80,NW,316,0.0,0.0,67,0.00,,CLR,0.00,VWS V14.01,2013-02-05 19:25:00,
2013-02-05 14:30:00,41.6,31.5,29.81,NW,319,0.0,2.0,67,0.00,,OVC070,0.00,VWS V14.01,2013-02-05 19:30:00,
2013-02-05 14:35:00,41.2,30.7,29.81,NW,319,0.0,4.0,66,0.00,,OVC070,0.00,VWS V14.01,2013-02-05 19:35:00,
2013-02-05 14:40:00,41.1,30.6,29.81,NNW,339,1.0,7.0,66,0.00,,OVC070,0.00,VWS V14.01,2013-02-05 19:40:00,
2013-02-05 14:45:00,41.5,31.0,29.80,NW,316,0.0,0.0,66,0.00,,CLR,0.00,VWS V14.01,2013-02-05 19:45:00,
2013-02-05 14:50:00,40.6,30.5,29.81,NW,323,3.0,7.0,67,0.00,,OVC070,0.00,VWS V14.01,2013-02-05 19:50:00,
2013-02-05 14:55:00,40.5,30.8,29.81,NW,318,2.0,5.0,68,0.00,,OVC070,0.00,VWS V14.01,2013-02-05 19:55:00,
2013-02-05 15:00:00,40.5,31.1,29.80,NW,319,0.0,6.0,69,0.00,,OVC075,0.00,VWS V14.01,2013-02-05 20:00:00,
2013-02-05 15:05:00,40.6,30.5,29.80,NW,318,0.0,3.0,67,0.00,,OVC075,0.00,VWS V14.01,2013-02-05 20:05:00,
2013-02-05 15:10:00,40.8,31.4,29.80,NW,316,0.0,2.0,69,0.00,,CLR,0.00,VWS V14.01,2013-02-05 20:10:00,
2013-02-05 15:15:00,41.2,31.1,29.80,NW,316,0.0,0.0,67,0.00,,OVC075,0.00,VWS V14.01,2013-02-05 20:15:00,
2013-02-05 15:20:00,41.2,30.7,29.80,NW,316,0.0,3.0,66,0.00,,OVC075,0.00,VWS V14.01,2013-02-05 20:20:00,
2013-02-05 15:25:00,41.3,31.2,29.80,NW,316,0.0,0.0,67,0.00,,OVC075,0.00,VWS V14.01,2013-02-05 20:25:00,
2013-02-05 15:30:00,40.6,32.0,29.81,NW,316,0.0,0.0,71,0.00,,CLR,0.00,VWS V14.01,2013-02-05 20:30:00,
2013-02-05 15:35:00,41.5,31.0,29.80,NW,316,0.0,3.0,66,0.00,,OVC075,0.00,VWS V14.01,2013-02-05 20:35:00,
2013-02-05 15:40:00,41.5,31.4,29.80,NW,316,0.0,0.0,67,0.00,,OVC075,0.00,VWS V14.01,2013-02-05 20:40:00,
2013-02-05 15:45:00,40.5,32.2,29.81,NW,316,0.0,0.0,72,0.00,,CLR,0.00,VWS V14.01,2013-02-05 20:45:00,
2013-02-05 15:50:00,41.3,31.2,29.80,NW,316,0.0,0.0,67,0.00,,OVC075,0.00,VWS V14.01,2013-02-05 20:50:00,
2013-02-05 15:55:00,40.3,32.0,29.81,NW,316,0.0,0.0,72,0.00,,CLR,0.00,VWS V14.01,2013-02-05 20:55:00,
2013-02-05 16:00:00,41.1,31.4,29.80,NW,316,0.0,0.0,68,0.00,,BKN085,0.00,VWS V14.01,2013-02-05 21:00:00,
2013-02-05 16:05:00,40.9,31.5,29.80,NW,316,0.0,3.0,69,0.00,,BKN085,0.00,VWS V14.01,2013-02-05 21:05:00,
2013-02-05 16:10:00,40.8,31.4,29.80,NW,316,0.0,2.0,69,0.00,,BKN085,0.00,VWS V14.01,2013-02-05 21:10:00,
2013-02-05 16:15:00,40.8,31.8,29.80,NW,316,0.0,0.0,70,0.00,,BKN085,0.00,VWS V14.01,2013-02-05 21:15:00,
2013-02-05 16:20:00,40.1,32.2,29.81,NW,316,0.0,0.0,73,0.00,,CLR,0.00,VWS V14.01,2013-02-05 21:20:00,
2013-02-05 16:25:00,40.8,32.1,29.80,NW,316,0.0,0.0,71,0.00,,BKN085,0.00,VWS V14.01,2013-02-05 21:25:00,
2013-02-05 16:30:00,39.8,32.2,29.80,NW,316,0.0,0.0,74,0.00,,CLR,0.00,VWS V14.01,2013-02-05 21:30:00,
2013-02-05 16:35:00,40.6,32.3,29.81,NW,316,0.0,0.0,72,0.00,,BKN085,0.00,VWS V14.01,2013-02-05 21:35:00,
2013-02-05 16:40:00,39.5,32.2,29.80,NW,316,0.0,0.0,75,0.00,,CLR,0.00,VWS V14.01,2013-02-05 21:40:00,
2013-02-05 16:45:00,40.5,32.2,29.81,NW,316,0.0,0.0,72,0.00,,BKN085,0.00,VWS V14.01,2013-02-05 21:45:00,
2013-02-05 16:50:00,39.1,32.2,29.81,NW,316,0.0,0.0,76,0.00,,CLR,0.00,VWS V14.01,2013-02-05 21:50:00,
2013-02-05 16:55:00,40.3,32.0,29.81,NW,316,0.0,0.0,72,0.00,,BKN085,0.00,VWS V14.01,2013-02-05 21:55:00,
2013-02-05 17:00:00,40.3,32.0,29.81,NW,316,0.0,0.0,72,0.00,,CLR,0.00,VWS V14.01,2013-02-05 22:00:00,
2013-02-05 17:05:00,38.6,32.0,29.81,NW,316,0.0,0.0,77,0.00,,CLR,0.00,VWS V14.01,2013-02-05 22:05:00,
2013-02-05 17:10:00,40.2,32.2,29.81,NW,316,0.0,0.0,73,0.00,,CLR,0.00,VWS V14.01,2013-02-05 22:10:00,
2013-02-05 17:15:00,40.1,32.2,29.81,NW,316,0.0,0.0,73,0.00,,CLR,0.00,VWS V14.01,2013-02-05 22:15:00,
2013-02-05 17:20:00,38.2,31.6,29.81,NW,316,0.0,0.0,77,0.00,,CLR,0.00,VWS V14.01,2013-02-05 22:20:00,
2013-02-05 17:25:00,39.9,32.0,29.81,NW,316,0.0,0.0,73,0.00,,CLR,0.00,VWS V14.01,2013-02-05 22:25:00,
2013-02-05 17:30:00,39.8,32.2,29.80,NW,316,0.0,0.0,74,0.00,,CLR,0.00,VWS V14.01,2013-02-05 22:30:00,
2013-02-05 17:35:00,38.0,31.4,29.82,NW,316,0.0,0.0,77,0.00,,CLR,0.00,VWS V14.01,2013-02-05 22:35:00,
2013-02-05 17:40:00,39.5,32.2,29.80,NW,316,0.0,0.0,75,0.00,,CLR,0.00,VWS V14.01,2013-02-05 22:40:00,
2013-02-05 17:45:00,39.3,32.4,29.81,NW,316,0.0,0.0,76,0.00,,CLR,0.00,VWS V14.01,2013-02-05 22:45:00,
2013-02-05 17:50:00,38.3,31.7,29.83,NW,316,0.0,0.0,77,0.00,,CLR,0.00,VWS V14.01,2013-02-05 22:50:00,
2013-02-05 17:55:00,38.9,32.0,29.81,NW,316,0.0,0.0,76,0.00,,CLR,0.00,VWS V14.01,2013-02-05 22:55:00,
2013-02-05 18:00:00,38.3,31.7,29.84,NW,316,0.0,0.0,77,0.00,,CLR,0.00,VWS V14.01,2013-02-05 23:00:00,
2013-02-05 18:05:00,38.6,32.0,29.81,NW,316,0.0,0.0,77,0.00,,CLR,0.00,VWS V14.01,2013-02-05 23:05:00,
2013-02-05 18:10:00,38.5,31.9,29.84,North,6,0.0,0.0,77,0.00,,CLR,0.00,VWS V14.01,2013-02-05 23:10:00,
2013-02-05 18:15:00,38.3,31.7,29.81,NW,316,0.0,0.0,77,0.00,,CLR,0.00,VWS V14.01,2013-02-05 23:15:00,
2013-02-05 18:20:00,38.2,31.6,29.81,NW,316,0.0,0.0,77,0.00,,CLR,0.00,VWS V14.01,2013-02-05 23:20:00,
2013-02-05 18:25:00,38.0,31.4,29.81,NW,316,0.0,0.0,77,0.00,,CLR,0.00,VWS V14.01,2013-02-05 23:25:00,
2013-02-05 18:30:00,37.9,31.4,29.82,NW,316,0.0,0.0,77,0.00,,CLR,0.00,VWS V14.01,2013-02-05 23:30:00,
2013-02-05 18:35:00,38.0,31.4,29.83,NE,55,0.0,2.0,77,0.00,,CLR,0.00,VWS V14.01,2013-02-05 23:35:00,
2013-02-05 18:40:00,38.0,31.4,29.82,NW,316,0.0,0.0,77,0.00,,CLR,0.00,VWS V14.01,2013-02-05 23:40:00,
2013-02-05 18:45:00,38.2,31.6,29.83,NW,316,0.0,0.0,77,0.00,,CLR,0.00,VWS V14.01,2013-02-05 23:45:00,
2013-02-05 18:50:00,37.6,31.1,29.83,ENE,61,0.0,2.0,77,0.00,,CLR,0.00,VWS V14.01,2013-02-05 23:50:00,
2013-02-05 18:55:00,38.3,31.7,29.83,NW,316,0.0,0.0,77,0.00,,CLR,0.00,VWS V14.01,2013-02-05 23:55:00,
2013-02-05 19:00:00,37.5,31.0,29.83,ENE,61,0.0,0.0,77,0.00,,CLR,0.00,VWS V14.01,2013-02-06 00:00:00,
2013-02-05 19:05:00,38.5,32.2,29.84,NW,316,0.0,0.0,78,0.00,,CLR,0.00,VWS V14.01,2013-02-06 00:05:00,
2013-02-05 19:10:00,38.5,31.9,29.84,North,6,0.0,0.0,77,0.00,,CLR,0.00,VWS V14.01,2013-02-06 00:10:00,
2013-02-05 19:15:00,38.5,31.6,29.84,NE,38,0.0,2.0,76,0.00,,CLR,0.00,VWS V14.01,2013-02-06 00:15:00,
2013-02-05 19:20:00,37.0,30.8,29.84,ENE,62,0.0,0.0,78,0.00,,CLR,0.00,VWS V14.01,2013-02-06 00:20:00,
2013-02-05 19:25:00,38.3,31.4,29.84,NE,56,0.0,1.0,76,0.00,,CLR,0.00,VWS V14.01,2013-02-06 00:25:00,
2013-02-05 19:30:00,38.2,31.6,29.83,NE,56,0.0,0.0,77,0.00,,CLR,0.00,VWS V14.01,2013-02-06 00:30:00,
2013-02-05 19:35:00,38.0,31.4,29.83,NE,55,0.0,2.0,77,0.00,,CLR,0.00,VWS V14.01,2013-02-06 00:35:00,
2013-02-05 19:40:00,37.8,31.2,29.83,NE,55,0.0,0.0,77,0.00,,CLR,0.00,VWS V14.01,2013-02-06 00:40:00,
2013-02-05 19:45:00,36.8,30.9,29.84,ENE,62,0.0,0.0,79,0.00,,CLR,0.00,VWS V14.01,2013-02-06 00:45:00,
2013-02-05 19:50:00,37.6,31.1,29.83,ENE,61,0.0,2.0,77,0.00,,CLR,0.00,VWS V14.01,2013-02-06 00:50:00,
2013-02-05 19:55:00,37.6,31.1,29.83,ENE,61,0.0,1.0,77,0.00,,CLR,0.00,VWS V14.01,2013-02-06 00:55:00,
2013-02-05 20:00:00,37.5,31.0,29.83,ENE,61,0.0,0.0,77,0.00,,CLR,0.00,VWS V14.01,2013-02-06 01:00:00,
2013-02-05 20:05:00,36.5,30.6,29.84,ENE,62,0.0,0.0,79,0.00,,CLR,0.00,VWS V14.01,2013-02-06 01:05:00,
2013-02-05 20:10:00,37.3,30.8,29.83,ENE,61,0.0,0.0,77,0.00,,CLR,0.00,VWS V14.01,2013-02-06 01:10:00,
2013-02-05 20:15:00,37.2,31.0,29.84,ENE,61,0.0,0.0,78,0.00,,CLR,0.00,VWS V14.01,2013-02-06 01:15:00,
2013-02-05 20:20:00,36.2,30.6,29.84,ENE,62,0.0,0.0,80,0.00,,CLR,0.00,VWS V14.01,2013-02-06 01:20:00,
2013-02-05 20:25:00,36.9,30.7,29.84,ENE,62,0.0,0.0,78,0.00,,CLR,0.00,VWS V14.01,2013-02-06 01:25:00,
2013-02-05 20:30:00,35.8,30.5,29.84,ENE,62,0.0,0.0,81,0.00,,CLR,0.00,VWS V14.01,2013-02-06 01:30:00,
2013-02-05 20:35:00,36.8,30.6,29.83,ENE,62,0.0,0.0,78,0.00,,CLR,0.00,VWS V14.01,2013-02-06 01:35:00,
2013-02-05 20:40:00,35.5,30.6,29.84,ENE,62,0.0,0.0,82,0.00,,CLR,0.00,VWS V14.01,2013-02-06 01:40:00,
2013-02-05 20:45:00,36.8,30.9,29.84,ENE,62,0.0,0.0,79,0.00,,CLR,0.00,VWS V14.01,2013-02-06 01:45:00,
2013-02-05 20:50:00,36.6,30.7,29.84,ENE,62,0.0,0.0,79,0.00,,CLR,0.00,VWS V14.01,2013-02-06 01:50:00,
2013-02-05 20:55:00,36.6,30.7,29.84,ENE,62,0.0,0.0,79,0.00,,CLR,0.00,VWS V14.01,2013-02-06 01:55:00,
2013-02-05 21:00:00,36.6,30.7,29.84,ENE,62,0.0,0.0,79,0.00,,CLR,0.00,VWS V14.01,2013-02-06 02:00:00,
2013-02-05 21:05:00,36.5,30.6,29.84,ENE,62,0.0,0.0,79,0.00,,CLR,0.00,VWS V14.01,2013-02-06 02:05:00,
2013-02-05 21:10:00,36.5,30.9,29.84,ENE,62,0.0,0.0,80,0.00,,CLR,0.00,VWS V14.01,2013-02-06 02:10:00,
2013-02-05 21:15:00,33.7,29.4,29.85,ENE,62,0.0,0.0,84,0.00,,CLR,0.00,VWS V14.01,2013-02-06 02:15:00,
2013-02-05 21:20:00,36.2,30.6,29.84,ENE,62,0.0,0.0,80,0.00,,CLR,0.00,VWS V14.01,2013-02-06 02:20:00,
2013-02-05 21:25:00,36.0,30.8,29.84,ENE,62,0.0,0.0,81,0.00,,CLR,0.00,VWS V14.01,2013-02-06 02:25:00,
2013-02-05 21:30:00,35.8,30.5,29.84,ENE,62,0.0,0.0,81,0.00,,CLR,0.00,VWS V14.01,2013-02-06 02:30:00,
2013-02-05 21:35:00,35.6,30.4,29.84,ENE,62,0.0,0.0,81,0.00,,CLR,0.00,VWS V14.01,2013-02-06 02:35:00,
2013-02-05 21:40:00,35.5,30.6,29.84,ENE,62,0.0,0.0,82,0.00,,CLR,0.00,VWS V14.01,2013-02-06 02:40:00,
2013-02-05 21:45:00,32.4,29.0,29.86,ENE,62,0.0,0.0,87,0.00,,CLR,0.00,VWS V14.01,2013-02-06 02:45:00,
2013-02-05 21:50:00,34.9,30.3,29.84,ENE,62,0.0,0.0,83,0.00,,CLR,0.00,VWS V14.01,2013-02-06 02:50:00,
2013-02-05 21:55:00,34.7,30.1,29.84,ENE,62,0.0,0.0,83,0.00,,CLR,0.00,VWS V14.01,2013-02-06 02:55:00,
2013-02-05 22:00:00,34.6,30.0,29.85,ENE,62,0.0,0.0,83,0.00,,CLR,0.00,VWS V14.01,2013-02-06 03:00:00,
2013-02-05 22:05:00,34.3,30.0,29.85,ENE,62,0.0,0.0,84,0.00,,CLR,0.00,VWS V14.01,2013-02-06 03:05:00,
2013-02-05 22:10:00,31.5,28.4,29.86,ENE,62,0.0,0.0,88,0.00,,CLR,0.00,VWS V14.01,2013-02-06 03:10:00,
2013-02-05 22:15:00,33.7,29.4,29.85,ENE,62,0.0,0.0,84,0.00,,CLR,0.00,VWS V14.01,2013-02-06 03:15:00,
2013-02-05 22:20:00,33.5,29.5,29.85,ENE,62,0.0,0.0,85,0.00,,CLR,0.00,VWS V14.01,2013-02-06 03:20:00,
2013-02-05 22:25:00,33.2,29.2,29.85,ENE,62,0.0,0.0,85,0.00,,CLR,0.00,VWS V14.01,2013-02-06 03:25:00,
2013-02-05 22:30:00,33.1,29.4,29.86,ENE,62,0.0,0.0,86,0.00,,CLR,0.00,VWS V14.01,2013-02-06 03:30:00,
2013-02-05 22:35:00,32.8,29.1,29.86,ENE,62,0.0,0.0,86,0.00,,CLR,0.00,VWS V14.01,2013-02-06 03:35:00,
2013-02-05 22:40:00,32.5,28.8,29.86,ENE,62,0.0,0.0,86,0.00,,CLR,0.00,VWS V14.01,2013-02-06 03:40:00,
2013-02-05 22:45:00,30.7,28.4,29.87,ENE,62,0.0,0.0,91,0.00,,CLR,0.00,VWS V14.01,2013-02-06 03:45:00,
2013-02-05 22:50:00,32.2,28.8,29.86,ENE,62,0.0,0.0,87,0.00,,CLR,0.00,VWS V14.01,2013-02-06 03:50:00,
2013-02-05 22:55:00,30.6,28.3,29.87,ENE,62,0.0,0.0,91,0.00,,CLR,0.00,VWS V14.01,2013-02-06 03:55:00,
2013-02-05 23:00:00,31.9,28.8,29.86,ENE,62,0.0,0.0,88,0.00,,CLR,0.00,VWS V14.01,2013-02-06 04:00:00,
2013-02-05 23:05:00,31.6,28.5,29.86,ENE,62,0.0,0.0,88,0.00,,FEW110,0.00,VWS V14.01,2013-02-06 04:05:00,
2013-02-05 23:10:00,30.3,28.0,29.87,ENE,62,0.0,0.0,91,0.00,,CLR,0.00,VWS V14.01,2013-02-06 04:10:00,
2013-02-05 23:15:00,31.3,28.4,29.86,ENE,62,0.0,0.0,89,0.00,,FEW110,0.00,VWS V14.01,2013-02-06 04:15:00,
2013-02-05 23:20:00,31.3,28.4,29.86,ENE,62,0.0,0.0,89,0.00,,FEW110,0.00,VWS V14.01,2013-02-06 04:20:00,
2013-02-05 23:25:00,30.1,28.1,29.87,ENE,62,0.0,0.0,92,0.00,,CLR,0.00,VWS V14.01,2013-02-06 04:25:00,
2013-02-05 23:30:00,31.0,28.4,29.86,ENE,62,0.0,0.0,90,0.00,,FEW110,0.00,VWS V14.01,2013-02-06 04:30:00,
2013-02-05 23:35:00,30.0,28.0,29.88,ENE,62,0.0,0.0,92,0.00,,CLR,0.00,VWS V14.01,2013-02-06 04:35:00,
2013-02-05 23:40:00,30.9,28.6,29.86,ENE,62,0.0,0.0,91,0.00,,FEW110,0.00,VWS V14.01,2013-02-06 04:40:00,
2013-02-05 23:45:00,30.7,28.4,29.87,ENE,62,0.0,0.0,91,0.00,,FEW110,0.00,VWS V14.01,2013-02-06 04:45:00,
2013-02-05 23:50:00,30.7,28.4,29.87,ENE,62,0.0,0.0,91,0.00,,FEW110,0.00,VWS V14.01,2013-02-06 04:50:00,
2013-02-05 23:55:00,30.7,29.2,29.89,ENE,62,0.0,0.0,94,0.00,,CLR,0.00,VWS V14.01,2013-02-06 04:55:00,